User: anonymous   Login
Location: Unspecified
(0.0000°N, 0.0000°E)
Time: 00:08:58
(UTC+00:00)
Language:

N. Korean satellite - Orbit

View from above orbital plane
View from above orbital plane
View from above satellite
View from above satellite

Ground track
Ground track

The orbit data is extracted from the following two-line orbital elements,

1 39026U 12072A   14329.65946459  .00007395  00000-0  37193-3 0  1935
2 39026 097.3088 003.3429 0049152 225.6746 134.0454 15.16446887107820
Epoch (UTC): 25 November 2014 15:49:37
Eccentricity: 0.0049152
inclination: 97.3088°
perigee height: 483 km
apogee height: 550 km
right ascension of ascending node: 3.3429°
argument of perigee: 225.6746°
revolutions per day: 15.16446887
mean anomaly at epoch: 134.0454°
orbit number at epoch: 10782

The dashed part of the orbit path shows where the satellite is in the earth's shadow,  

DLR